HVDC transfer

From www.emi.ea.govt.nz provided by the Electricity Authority (New Zealand)
Run at: 20240502190842

Parameters
Date range,18 Jul 2020 - 14 Aug 2020
Time scale,Trading period
Show,Average flow (MW)

Period start,Period end,Trading period,Direction,Energy transfer (GWh),Peak flow (MW),Average flow (MW)
18/07/2020 00:00:00,18/07/2020 00:30:00,1,Southward at Benmore,-0.082,-164,-164
18/07/2020 00:30:00,18/07/2020 01:00:00,2,Southward at Benmore,-0.098,-196,-196
18/07/2020 01:00:00,18/07/2020 01:30:00,3,Southward at Benmore,-0.102,-204,-204
18/07/2020 01:30:00,18/07/2020 02:00:00,4,Southward at Benmore,-0.097,-194,-194
18/07/2020 02:00:00,18/07/2020 02:30:00,5,Southward at Benmore,-0.087,-175,-175
18/07/2020 02:30:00,18/07/2020 03:00:00,6,Southward at Benmore,-0.099,-198,-198
18/07/2020 03:00:00,18/07/2020 03:30:00,7,Southward at Benmore,-0.104,-209,-209
18/07/2020 03:30:00,18/07/2020 04:00:00,8,Southward at Benmore,-0.100,-200,-200
18/07/2020 04:00:00,18/07/2020 04:30:00,9,Southward at Benmore,-0.102,-205,-205
18/07/2020 04:30:00,18/07/2020 05:00:00,10,Southward at Benmore,-0.099,-198,-198
18/07/2020 05:00:00,18/07/2020 05:30:00,11,Southward at Benmore,-0.098,-197,-197
18/07/2020 05:30:00,18/07/2020 06:00:00,12,Southward at Benmore,-0.069,-138,-138
18/07/2020 06:00:00,18/07/2020 06:30:00,13,Southward at Benmore,-0.053,-106,-106
18/07/2020 06:30:00,18/07/2020 07:00:00,14,Southward at Benmore,-0.022,-45,-45
18/07/2020 07:00:00,18/07/2020 07:30:00,15,Southward at Benmore,-0.015,-30,-30
18/07/2020 07:30:00,18/07/2020 08:00:00,16,Southward at Benmore,-0.006,-12,-12
18/07/2020 08:00:00,18/07/2020 08:30:00,17,Northward at Haywards,0.034,68,68
18/07/2020 08:30:00,18/07/2020 09:00:00,18,Northward at Haywards,0.026,52,52
18/07/2020 09:00:00,18/07/2020 09:30:00,19,Northward at Haywards,0.019,37,37
18/07/2020 09:30:00,18/07/2020 10:00:00,20,Northward at Haywards,0.024,48,48
18/07/2020 10:00:00,18/07/2020 10:30:00,21,Northward at Haywards,0.023,46,46
18/07/2020 10:30:00,18/07/2020 11:00:00,22,Northward at Haywards,0.035,69,69
18/07/2020 11:00:00,18/07/2020 11:30:00,23,Northward at Haywards,0.033,66,66
18/07/2020 11:30:00,18/07/2020 12:00:00,24,Northward at Haywards,0.028,55,55
18/07/2020 12:00:00,18/07/2020 12:30:00,25,Northward at Haywards,0.035,69,69
18/07/2020 12:30:00,18/07/2020 13:00:00,26,Northward at Haywards,0.041,82,82
18/07/2020 13:00:00,18/07/2020 13:30:00,27,Southward at Benmore,-0.028,-56,-56
18/07/2020 13:30:00,18/07/2020 14:00:00,28,Southward at Benmore,-0.038,-76,-76
18/07/2020 14:00:00,18/07/2020 14:30:00,29,Southward at Benmore,-0.039,-78,-78
18/07/2020 14:30:00,18/07/2020 15:00:00,30,Southward at Benmore,-0.040,-80,-80
18/07/2020 15:00:00,18/07/2020 15:30:00,31,Northward at Haywards,0.006,11,11
18/07/2020 15:30:00,18/07/2020 16:00:00,32,Northward at Haywards,0.006,12,12
18/07/2020 16:00:00,18/07/2020 16:30:00,33,Southward at Benmore,-0.006,-12,-12
18/07/2020 16:30:00,18/07/2020 17:00:00,34,Northward at Haywards,0.027,54,54
18/07/2020 17:00:00,18/07/2020 17:30:00,35,Northward at Haywards,0.039,78,78
18/07/2020 17:30:00,18/07/2020 18:00:00,36,Northward at Haywards,0.071,141,141
18/07/2020 18:00:00,18/07/2020 18:30:00,37,Northward at Haywards,0.056,111,111
18/07/2020 18:30:00,18/07/2020 19:00:00,38,Northward at Haywards,0.035,70,70
18/07/2020 19:00:00,18/07/2020 19:30:00,39,Northward at Haywards,0.022,43,43
18/07/2020 19:30:00,18/07/2020 20:00:00,40,Northward at Haywards,0.027,53,53
18/07/2020 20:00:00,18/07/2020 20:30:00,41,Northward at Haywards,0.014,27,27
18/07/2020 20:30:00,18/07/2020 21:00:00,42,Northward at Haywards,0.025,49,49
18/07/2020 21:00:00,18/07/2020 21:30:00,43,Northward at Haywards,0.005,9,9
18/07/2020 21:30:00,18/07/2020 22:00:00,44,Southward at Benmore,-0.015,-30,-30
18/07/2020 22:00:00,18/07/2020 22:30:00,45,Southward at Benmore,-0.004,-8,-8
18/07/2020 22:30:00,18/07/2020 23:00:00,46,Southward at Benmore,0.000,-1,-1
18/07/2020 23:00:00,18/07/2020 23:30:00,47,Southward at Benmore,-0.071,-143,-143
18/07/2020 23:30:00,19/07/2020 00:00:00,48,Southward at Benmore,-0.081,-162,-162
19/07/2020 00:00:00,19/07/2020 00:30:00,1,Southward at Benmore,-0.069,-138,-138
19/07/2020 00:30:00,19/07/2020 01:00:00,2,Southward at Benmore,-0.094,-189,-189
19/07/2020 01:00:00,19/07/2020 01:30:00,3,Southward at Benmore,-0.101,-203,-203
19/07/2020 01:30:00,19/07/2020 02:00:00,4,Southward at Benmore,-0.111,-222,-222
19/07/2020 02:00:00,19/07/2020 02:30:00,5,Southward at Benmore,-0.115,-230,-230
19/07/2020 02:30:00,19/07/2020 03:00:00,6,Southward at Benmore,-0.107,-214,-214
19/07/2020 03:00:00,19/07/2020 03:30:00,7,Southward at Benmore,-0.095,-190,-190
19/07/2020 03:30:00,19/07/2020 04:00:00,8,Southward at Benmore,-0.100,-200,-200
19/07/2020 04:00:00,19/07/2020 04:30:00,9,Southward at Benmore,-0.092,-184,-184
19/07/2020 04:30:00,19/07/2020 05:00:00,10,Southward at Benmore,-0.083,-167,-167
19/07/2020 05:00:00,19/07/2020 05:30:00,11,Southward at Benmore,-0.072,-144,-144
19/07/2020 05:30:00,19/07/2020 06:00:00,12,Southward at Benmore,-0.056,-112,-112
19/07/2020 06:00:00,19/07/2020 06:30:00,13,Southward at Benmore,-0.059,-118,-118
19/07/2020 06:30:00,19/07/2020 07:00:00,14,Southward at Benmore,-0.038,-77,-77
19/07/2020 07:00:00,19/07/2020 07:30:00,15,Southward at Benmore,-0.027,-55,-55
19/07/2020 07:30:00,19/07/2020 08:00:00,16,Southward at Benmore,-0.006,-13,-13
19/07/2020 08:00:00,19/07/2020 08:30:00,17,Northward at Haywards,0.030,59,59
19/07/2020 08:30:00,19/07/2020 09:00:00,18,Northward at Haywards,0.033,65,65
19/07/2020 09:00:00,19/07/2020 09:30:00,19,Northward at Haywards,0.043,86,86
19/07/2020 09:30:00,19/07/2020 10:00:00,20,Northward at Haywards,0.038,75,75
19/07/2020 10:00:00,19/07/2020 10:30:00,21,Northward at Haywards,0.039,78,78
19/07/2020 10:30:00,19/07/2020 11:00:00,22,Northward at Haywards,0.041,81,81
19/07/2020 11:00:00,19/07/2020 11:30:00,23,Northward at Haywards,0.025,50,50
19/07/2020 11:30:00,19/07/2020 12:00:00,24,Northward at Haywards,0.037,74,74
19/07/2020 12:00:00,19/07/2020 12:30:00,25,Northward at Haywards,0.043,85,85
19/07/2020 12:30:00,19/07/2020 13:00:00,26,Northward at Haywards,0.024,48,48
19/07/2020 13:00:00,19/07/2020 13:30:00,27,Northward at Haywards,0.026,52,52
19/07/2020 13:30:00,19/07/2020 14:00:00,28,Northward at Haywards,0.011,22,22
19/07/2020 14:00:00,19/07/2020 14:30:00,29,Northward at Haywards,0.020,40,40
19/07/2020 14:30:00,19/07/2020 15:00:00,30,Northward at Haywards,0.019,38,38
19/07/2020 15:00:00,19/07/2020 15:30:00,31,Northward at Haywards,0.027,53,53
19/07/2020 15:30:00,19/07/2020 16:00:00,32,Northward at Haywards,0.029,58,58
19/07/2020 16:00:00,19/07/2020 16:30:00,33,Northward at Haywards,0.044,88,88
19/07/2020 16:30:00,19/07/2020 17:00:00,34,Northward at Haywards,0.047,94,94
19/07/2020 17:00:00,19/07/2020 17:30:00,35,Northward at Haywards,0.076,152,152
19/07/2020 17:30:00,19/07/2020 18:00:00,36,Northward at Haywards,0.106,212,212
19/07/2020 18:00:00,19/07/2020 18:30:00,37,Northward at Haywards,0.137,274,274
19/07/2020 18:30:00,19/07/2020 19:00:00,38,Northward at Haywards,0.106,212,212
19/07/2020 19:00:00,19/07/2020 19:30:00,39,Northward at Haywards,0.106,212,212
19/07/2020 19:30:00,19/07/2020 20:00:00,40,Northward at Haywards,0.118,236,236
19/07/2020 20:00:00,19/07/2020 20:30:00,41,Northward at Haywards,0.106,212,212
19/07/2020 20:30:00,19/07/2020 21:00:00,42,Northward at Haywards,0.106,212,212
19/07/2020 21:00:00,19/07/2020 21:30:00,43,Northward at Haywards,0.097,193,193
19/07/2020 21:30:00,19/07/2020 22:00:00,44,Northward at Haywards,0.062,124,124
19/07/2020 22:00:00,19/07/2020 22:30:00,45,Northward at Haywards,0.027,54,54
19/07/2020 22:30:00,19/07/2020 23:00:00,46,Northward at Haywards,0.036,72,72
19/07/2020 23:00:00,19/07/2020 23:30:00,47,Southward at Benmore,-0.027,-54,-54
19/07/2020 23:30:00,20/07/2020 00:00:00,48,Southward at Benmore,-0.031,-63,-63
20/07/2020 00:00:00,20/07/2020 00:30:00,1,Southward at Benmore,-0.016,-32,-32
20/07/2020 00:30:00,20/07/2020 01:00:00,2,Southward at Benmore,-0.062,-125,-125
20/07/2020 01:00:00,20/07/2020 01:30:00,3,Southward at Benmore,-0.055,-111,-111
20/07/2020 01:30:00,20/07/2020 02:00:00,4,Southward at Benmore,-0.058,-117,-117
20/07/2020 02:00:00,20/07/2020 02:30:00,5,Southward at Benmore,-0.054,-108,-108
20/07/2020 02:30:00,20/07/2020 03:00:00,6,Southward at Benmore,-0.049,-99,-99
20/07/2020 03:00:00,20/07/2020 03:30:00,7,Southward at Benmore,-0.063,-127,-127
20/07/2020 03:30:00,20/07/2020 04:00:00,8,Southward at Benmore,-0.060,-121,-121
20/07/2020 04:00:00,20/07/2020 04:30:00,9,Southward at Benmore,-0.060,-121,-121
20/07/2020 04:30:00,20/07/2020 05:00:00,10,Southward at Benmore,-0.054,-108,-108
20/07/2020 05:00:00,20/07/2020 05:30:00,11,Southward at Benmore,-0.043,-87,-87
20/07/2020 05:30:00,20/07/2020 06:00:00,12,Southward at Benmore,-0.006,-12,-12
20/07/2020 06:00:00,20/07/2020 06:30:00,13,Northward at Haywards,0.023,45,45
20/07/2020 06:30:00,20/07/2020 07:00:00,14,Northward at Haywards,0.029,58,58
20/07/2020 07:00:00,20/07/2020 07:30:00,15,Northward at Haywards,0.126,252,252
20/07/2020 07:30:00,20/07/2020 08:00:00,16,Northward at Haywards,0.179,358,358
20/07/2020 08:00:00,20/07/2020 08:30:00,17,Northward at Haywards,0.208,416,416
20/07/2020 08:30:00,20/07/2020 09:00:00,18,Northward at Haywards,0.167,334,334
20/07/2020 09:00:00,20/07/2020 09:30:00,19,Northward at Haywards,0.169,337,337
20/07/2020 09:30:00,20/07/2020 10:00:00,20,Northward at Haywards,0.160,320,320
20/07/2020 10:00:00,20/07/2020 10:30:00,21,Northward at Haywards,0.174,347,347
20/07/2020 10:30:00,20/07/2020 11:00:00,22,Northward at Haywards,0.177,353,353
20/07/2020 11:00:00,20/07/2020 11:30:00,23,Northward at Haywards,0.191,381,381
20/07/2020 11:30:00,20/07/2020 12:00:00,24,Northward at Haywards,0.208,415,415
20/07/2020 12:00:00,20/07/2020 12:30:00,25,Northward at Haywards,0.205,410,410
20/07/2020 12:30:00,20/07/2020 13:00:00,26,Northward at Haywards,0.199,397,397
20/07/2020 13:00:00,20/07/2020 13:30:00,27,Northward at Haywards,0.196,392,392
20/07/2020 13:30:00,20/07/2020 14:00:00,28,Northward at Haywards,0.197,393,393
20/07/2020 14:00:00,20/07/2020 14:30:00,29,Northward at Haywards,0.205,409,409
20/07/2020 14:30:00,20/07/2020 15:00:00,30,Northward at Haywards,0.198,395,395
20/07/2020 15:00:00,20/07/2020 15:30:00,31,Northward at Haywards,0.206,411,411
20/07/2020 15:30:00,20/07/2020 16:00:00,32,Northward at Haywards,0.204,407,407
20/07/2020 16:00:00,20/07/2020 16:30:00,33,Northward at Haywards,0.186,371,371
20/07/2020 16:30:00,20/07/2020 17:00:00,34,Northward at Haywards,0.173,346,346
20/07/2020 17:00:00,20/07/2020 17:30:00,35,Northward at Haywards,0.158,315,315
20/07/2020 17:30:00,20/07/2020 18:00:00,36,Northward at Haywards,0.199,398,398
20/07/2020 18:00:00,20/07/2020 18:30:00,37,Northward at Haywards,0.209,418,418
20/07/2020 18:30:00,20/07/2020 19:00:00,38,Northward at Haywards,0.193,385,385
20/07/2020 19:00:00,20/07/2020 19:30:00,39,Northward at Haywards,0.156,312,312
20/07/2020 19:30:00,20/07/2020 20:00:00,40,Northward at Haywards,0.171,341,341
20/07/2020 20:00:00,20/07/2020 20:30:00,41,Northward at Haywards,0.186,372,372
20/07/2020 20:30:00,20/07/2020 21:00:00,42,Northward at Haywards,0.162,324,324
20/07/2020 21:00:00,20/07/2020 21:30:00,43,Northward at Haywards,0.131,262,262
20/07/2020 21:30:00,20/07/2020 22:00:00,44,Northward at Haywards,0.099,198,198
20/07/2020 22:00:00,20/07/2020 22:30:00,45,Northward at Haywards,0.059,117,117
20/07/2020 22:30:00,20/07/2020 23:00:00,46,Northward at Haywards,0.021,41,41
20/07/2020 23:00:00,20/07/2020 23:30:00,47,Southward at Benmore,-0.018,-37,-37
20/07/2020 23:30:00,21/07/2020 00:00:00,48,Southward at Benmore,-0.053,-107,-107
21/07/2020 00:00:00,21/07/2020 00:30:00,1,Southward at Benmore,-0.062,-124,-124
21/07/2020 00:30:00,21/07/2020 01:00:00,2,Southward at Benmore,-0.080,-160,-160
21/07/2020 01:00:00,21/07/2020 01:30:00,3,Southward at Benmore,-0.115,-230,-230
21/07/2020 01:30:00,21/07/2020 02:00:00,4,Southward at Benmore,-0.104,-208,-208
21/07/2020 02:00:00,21/07/2020 02:30:00,5,Southward at Benmore,-0.108,-216,-216
21/07/2020 02:30:00,21/07/2020 03:00:00,6,Southward at Benmore,-0.113,-226,-226
21/07/2020 03:00:00,21/07/2020 03:30:00,7,Southward at Benmore,-0.102,-204,-204
21/07/2020 03:30:00,21/07/2020 04:00:00,8,Southward at Benmore,-0.100,-201,-201
21/07/2020 04:00:00,21/07/2020 04:30:00,9,Southward at Benmore,-0.090,-181,-181
21/07/2020 04:30:00,21/07/2020 05:00:00,10,Southward at Benmore,-0.092,-184,-184
21/07/2020 05:00:00,21/07/2020 05:30:00,11,Southward at Benmore,-0.059,-119,-119
21/07/2020 05:30:00,21/07/2020 06:00:00,12,Southward at Benmore,-0.054,-109,-109
21/07/2020 06:00:00,21/07/2020 06:30:00,13,Southward at Benmore,-0.024,-49,-49
21/07/2020 06:30:00,21/07/2020 07:00:00,14,Northward at Haywards,0.025,49,49
21/07/2020 07:00:00,21/07/2020 07:30:00,15,Northward at Haywards,0.121,241,241
21/07/2020 07:30:00,21/07/2020 08:00:00,16,Northward at Haywards,0.177,353,353
21/07/2020 08:00:00,21/07/2020 08:30:00,17,Northward at Haywards,0.205,410,410
21/07/2020 08:30:00,21/07/2020 09:00:00,18,Northward at Haywards,0.231,462,462
21/07/2020 09:00:00,21/07/2020 09:30:00,19,Northward at Haywards,0.257,513,513
21/07/2020 09:30:00,21/07/2020 10:00:00,20,Northward at Haywards,0.248,496,496
21/07/2020 10:00:00,21/07/2020 10:30:00,21,Northward at Haywards,0.245,490,490
21/07/2020 10:30:00,21/07/2020 11:00:00,22,Northward at Haywards,0.250,500,500
21/07/2020 11:00:00,21/07/2020 11:30:00,23,Northward at Haywards,0.246,491,491
21/07/2020 11:30:00,21/07/2020 12:00:00,24,Northward at Haywards,0.259,517,517
21/07/2020 12:00:00,21/07/2020 12:30:00,25,Northward at Haywards,0.262,523,523
21/07/2020 12:30:00,21/07/2020 13:00:00,26,Northward at Haywards,0.276,552,552
21/07/2020 13:00:00,21/07/2020 13:30:00,27,Northward at Haywards,0.271,542,542
21/07/2020 13:30:00,21/07/2020 14:00:00,28,Northward at Haywards,0.286,571,571
21/07/2020 14:00:00,21/07/2020 14:30:00,29,Northward at Haywards,0.292,584,584
21/07/2020 14:30:00,21/07/2020 15:00:00,30,Northward at Haywards,0.292,584,584
21/07/2020 15:00:00,21/07/2020 15:30:00,31,Northward at Haywards,0.292,583,583
21/07/2020 15:30:00,21/07/2020 16:00:00,32,Northward at Haywards,0.286,572,572
21/07/2020 16:00:00,21/07/2020 16:30:00,33,Northward at Haywards,0.291,582,582
21/07/2020 16:30:00,21/07/2020 17:00:00,34,Northward at Haywards,0.252,503,503
21/07/2020 17:00:00,21/07/2020 17:30:00,35,Northward at Haywards,0.272,543,543
21/07/2020 17:30:00,21/07/2020 18:00:00,36,Northward at Haywards,0.295,590,590
21/07/2020 18:00:00,21/07/2020 18:30:00,37,Northward at Haywards,0.258,516,516
21/07/2020 18:30:00,21/07/2020 19:00:00,38,Northward at Haywards,0.265,529,529
21/07/2020 19:00:00,21/07/2020 19:30:00,39,Northward at Haywards,0.259,518,518
21/07/2020 19:30:00,21/07/2020 20:00:00,40,Northward at Haywards,0.276,551,551
21/07/2020 20:00:00,21/07/2020 20:30:00,41,Northward at Haywards,0.265,530,530
21/07/2020 20:30:00,21/07/2020 21:00:00,42,Northward at Haywards,0.256,512,512
21/07/2020 21:00:00,21/07/2020 21:30:00,43,Northward at Haywards,0.264,528,528
21/07/2020 21:30:00,21/07/2020 22:00:00,44,Northward at Haywards,0.218,435,435
21/07/2020 22:00:00,21/07/2020 22:30:00,45,Northward at Haywards,0.130,259,259
21/07/2020 22:30:00,21/07/2020 23:00:00,46,Northward at Haywards,0.100,199,199
21/07/2020 23:00:00,21/07/2020 23:30:00,47,Northward at Haywards,0.068,136,136
21/07/2020 23:30:00,22/07/2020 00:00:00,48,Northward at Haywards,0.026,51,51
22/07/2020 00:00:00,22/07/2020 00:30:00,1,Southward at Benmore,-0.010,-21,-21
22/07/2020 00:30:00,22/07/2020 01:00:00,2,Southward at Benmore,-0.030,-60,-60
22/07/2020 01:00:00,22/07/2020 01:30:00,3,Northward at Haywards,0.017,33,33
22/07/2020 01:30:00,22/07/2020 02:00:00,4,Northward at Haywards,0.011,21,21
22/07/2020 02:00:00,22/07/2020 02:30:00,5,Southward at Benmore,-0.001,-3,-3
22/07/2020 02:30:00,22/07/2020 03:00:00,6,Southward at Benmore,-0.011,-23,-23
22/07/2020 03:00:00,22/07/2020 03:30:00,7,Northward at Haywards,0.002,4,4
22/07/2020 03:30:00,22/07/2020 04:00:00,8,Northward at Haywards,0.012,24,24
22/07/2020 04:00:00,22/07/2020 04:30:00,9,Northward at Haywards,0.017,34,34
22/07/2020 04:30:00,22/07/2020 05:00:00,10,Northward at Haywards,0.039,77,77
22/07/2020 05:00:00,22/07/2020 05:30:00,11,Northward at Haywards,0.065,130,130
22/07/2020 05:30:00,22/07/2020 06:00:00,12,Northward at Haywards,0.060,119,119
22/07/2020 06:00:00,22/07/2020 06:30:00,13,Northward at Haywards,0.051,101,101
22/07/2020 06:30:00,22/07/2020 07:00:00,14,Northward at Haywards,0.114,227,227
22/07/2020 07:00:00,22/07/2020 07:30:00,15,Northward at Haywards,0.176,352,352
22/07/2020 07:30:00,22/07/2020 08:00:00,16,Northward at Haywards,0.196,391,391
22/07/2020 08:00:00,22/07/2020 08:30:00,17,Northward at Haywards,0.229,457,457
22/07/2020 08:30:00,22/07/2020 09:00:00,18,Northward at Haywards,0.252,503,503
22/07/2020 09:00:00,22/07/2020 09:30:00,19,Northward at Haywards,0.246,492,492
22/07/2020 09:30:00,22/07/2020 10:00:00,20,Northward at Haywards,0.271,542,542
22/07/2020 10:00:00,22/07/2020 10:30:00,21,Northward at Haywards,0.274,547,547
22/07/2020 10:30:00,22/07/2020 11:00:00,22,Northward at Haywards,0.283,566,566
22/07/2020 11:00:00,22/07/2020 11:30:00,23,Northward at Haywards,0.275,550,550
22/07/2020 11:30:00,22/07/2020 12:00:00,24,Northward at Haywards,0.268,536,536
22/07/2020 12:00:00,22/07/2020 12:30:00,25,Northward at Haywards,0.262,524,524
22/07/2020 12:30:00,22/07/2020 13:00:00,26,Northward at Haywards,0.256,512,512
22/07/2020 13:00:00,22/07/2020 13:30:00,27,Northward at Haywards,0.259,518,518
22/07/2020 13:30:00,22/07/2020 14:00:00,28,Northward at Haywards,0.282,563,563
22/07/2020 14:00:00,22/07/2020 14:30:00,29,Northward at Haywards,0.257,514,514
22/07/2020 14:30:00,22/07/2020 15:00:00,30,Northward at Haywards,0.258,515,515
22/07/2020 15:00:00,22/07/2020 15:30:00,31,Northward at Haywards,0.263,525,525
22/07/2020 15:30:00,22/07/2020 16:00:00,32,Northward at Haywards,0.276,551,551
22/07/2020 16:00:00,22/07/2020 16:30:00,33,Northward at Haywards,0.299,598,598
22/07/2020 16:30:00,22/07/2020 17:00:00,34,Northward at Haywards,0.323,645,645
22/07/2020 17:00:00,22/07/2020 17:30:00,35,Northward at Haywards,0.290,580,580
22/07/2020 17:30:00,22/07/2020 18:00:00,36,Northward at Haywards,0.295,589,589
22/07/2020 18:00:00,22/07/2020 18:30:00,37,Northward at Haywards,0.280,560,560
22/07/2020 18:30:00,22/07/2020 19:00:00,38,Northward at Haywards,0.272,544,544
22/07/2020 19:00:00,22/07/2020 19:30:00,39,Northward at Haywards,0.230,460,460
22/07/2020 19:30:00,22/07/2020 20:00:00,40,Northward at Haywards,0.232,463,463
22/07/2020 20:00:00,22/07/2020 20:30:00,41,Northward at Haywards,0.247,493,493
22/07/2020 20:30:00,22/07/2020 21:00:00,42,Northward at Haywards,0.231,462,462
22/07/2020 21:00:00,22/07/2020 21:30:00,43,Northward at Haywards,0.202,404,404
22/07/2020 21:30:00,22/07/2020 22:00:00,44,Northward at Haywards,0.141,282,282
22/07/2020 22:00:00,22/07/2020 22:30:00,45,Northward at Haywards,0.093,185,185
22/07/2020 22:30:00,22/07/2020 23:00:00,46,Northward at Haywards,0.050,99,99
22/07/2020 23:00:00,22/07/2020 23:30:00,47,Southward at Benmore,-0.015,-31,-31
22/07/2020 23:30:00,23/07/2020 00:00:00,48,Southward at Benmore,-0.037,-75,-75
23/07/2020 00:00:00,23/07/2020 00:30:00,1,Southward at Benmore,-0.078,-157,-157
23/07/2020 00:30:00,23/07/2020 01:00:00,2,Southward at Benmore,-0.126,-252,-252
23/07/2020 01:00:00,23/07/2020 01:30:00,3,Southward at Benmore,-0.159,-318,-318
23/07/2020 01:30:00,23/07/2020 02:00:00,4,Southward at Benmore,-0.152,-305,-305
23/07/2020 02:00:00,23/07/2020 02:30:00,5,Southward at Benmore,-0.158,-316,-316
23/07/2020 02:30:00,23/07/2020 03:00:00,6,Southward at Benmore,-0.151,-302,-302
23/07/2020 03:00:00,23/07/2020 03:30:00,7,Southward at Benmore,-0.155,-311,-311
23/07/2020 03:30:00,23/07/2020 04:00:00,8,Southward at Benmore,-0.164,-328,-328
23/07/2020 04:00:00,23/07/2020 04:30:00,9,Southward at Benmore,-0.153,-307,-307
23/07/2020 04:30:00,23/07/2020 05:00:00,10,Southward at Benmore,-0.132,-264,-264
23/07/2020 05:00:00,23/07/2020 05:30:00,11,Southward at Benmore,-0.107,-214,-214
23/07/2020 05:30:00,23/07/2020 06:00:00,12,Southward at Benmore,-0.073,-146,-146
23/07/2020 06:00:00,23/07/2020 06:30:00,13,Southward at Benmore,-0.046,-92,-92
23/07/2020 06:30:00,23/07/2020 07:00:00,14,Northward at Haywards,0.036,71,71
23/07/2020 07:00:00,23/07/2020 07:30:00,15,Northward at Haywards,0.108,216,216
23/07/2020 07:30:00,23/07/2020 08:00:00,16,Northward at Haywards,0.158,316,316
23/07/2020 08:00:00,23/07/2020 08:30:00,17,Northward at Haywards,0.195,390,390
23/07/2020 08:30:00,23/07/2020 09:00:00,18,Northward at Haywards,0.186,372,372
23/07/2020 09:00:00,23/07/2020 09:30:00,19,Northward at Haywards,0.150,299,299
23/07/2020 09:30:00,23/07/2020 10:00:00,20,Northward at Haywards,0.156,312,312
23/07/2020 10:00:00,23/07/2020 10:30:00,21,Northward at Haywards,0.149,298,298
23/07/2020 10:30:00,23/07/2020 11:00:00,22,Northward at Haywards,0.159,318,318
23/07/2020 11:00:00,23/07/2020 11:30:00,23,Northward at Haywards,0.155,310,310
23/07/2020 11:30:00,23/07/2020 12:00:00,24,Northward at Haywards,0.159,317,317
23/07/2020 12:00:00,23/07/2020 12:30:00,25,Northward at Haywards,0.158,316,316
23/07/2020 12:30:00,23/07/2020 13:00:00,26,Northward at Haywards,0.154,307,307
23/07/2020 13:00:00,23/07/2020 13:30:00,27,Northward at Haywards,0.138,275,275
23/07/2020 13:30:00,23/07/2020 14:00:00,28,Northward at Haywards,0.122,244,244
23/07/2020 14:00:00,23/07/2020 14:30:00,29,Northward at Haywards,0.116,231,231
23/07/2020 14:30:00,23/07/2020 15:00:00,30,Northward at Haywards,0.123,246,246
23/07/2020 15:00:00,23/07/2020 15:30:00,31,Northward at Haywards,0.109,217,217
23/07/2020 15:30:00,23/07/2020 16:00:00,32,Northward at Haywards,0.123,245,245
23/07/2020 16:00:00,23/07/2020 16:30:00,33,Northward at Haywards,0.102,203,203
23/07/2020 16:30:00,23/07/2020 17:00:00,34,Northward at Haywards,0.072,144,144
23/07/2020 17:00:00,23/07/2020 17:30:00,35,Northward at Haywards,0.102,204,204
23/07/2020 17:30:00,23/07/2020 18:00:00,36,Northward at Haywards,0.143,286,286
23/07/2020 18:00:00,23/07/2020 18:30:00,37,Northward at Haywards,0.135,269,269
23/07/2020 18:30:00,23/07/2020 19:00:00,38,Northward at Haywards,0.102,203,203
23/07/2020 19:00:00,23/07/2020 19:30:00,39,Northward at Haywards,0.108,215,215
23/07/2020 19:30:00,23/07/2020 20:00:00,40,Northward at Haywards,0.104,207,207
23/07/2020 20:00:00,23/07/2020 20:30:00,41,Northward at Haywards,0.123,246,246
23/07/2020 20:30:00,23/07/2020 21:00:00,42,Northward at Haywards,0.117,233,233
23/07/2020 21:00:00,23/07/2020 21:30:00,43,Northward at Haywards,0.110,220,220
23/07/2020 21:30:00,23/07/2020 22:00:00,44,Northward at Haywards,0.075,150,150
23/07/2020 22:00:00,23/07/2020 22:30:00,45,Northward at Haywards,0.055,109,109
23/07/2020 22:30:00,23/07/2020 23:00:00,46,Northward at Haywards,0.024,47,47
23/07/2020 23:00:00,23/07/2020 23:30:00,47,Southward at Benmore,-0.014,-28,-28
23/07/2020 23:30:00,24/07/2020 00:00:00,48,Southward at Benmore,-0.027,-55,-55
24/07/2020 00:00:00,24/07/2020 00:30:00,1,Southward at Benmore,-0.019,-39,-39
24/07/2020 00:30:00,24/07/2020 01:00:00,2,Southward at Benmore,-0.039,-78,-78
24/07/2020 01:00:00,24/07/2020 01:30:00,3,Southward at Benmore,-0.035,-71,-71
24/07/2020 01:30:00,24/07/2020 02:00:00,4,Southward at Benmore,-0.033,-67,-67
24/07/2020 02:00:00,24/07/2020 02:30:00,5,Southward at Benmore,-0.070,-140,-140
24/07/2020 02:30:00,24/07/2020 03:00:00,6,Southward at Benmore,-0.086,-172,-172
24/07/2020 03:00:00,24/07/2020 03:30:00,7,Southward at Benmore,-0.065,-130,-130
24/07/2020 03:30:00,24/07/2020 04:00:00,8,Southward at Benmore,-0.062,-125,-125